Hourly Weather Yeghegnadzor

Today, 3 July, Friday

Time Temperature Precipitation Wind Pressure Humidity
00:00 +17°C° 0 mm 2 mps 654 mmHg 70%
01:00 +17°C° 0 mm 2 mps 653 mmHg 70%
02:00 +16°C° 0 mm 2 mps 653 mmHg 70%
03:00 +16°C° 0 mm 2 mps 653 mmHg 69%
04:00 +17°C° 0 mm 2 mps 653 mmHg 68%
05:00 +19°C° 0 mm 1 mps 654 mmHg 66%
06:00 +20°C° 0 mm 1 mps 654 mmHg 64%
07:00 +21°C° 0 mm 1 mps 655 mmHg 58%
08:00 +23°C° 0 mm 1 mps 655 mmHg 53%
09:00 +25°C° 0 mm 1 mps 656 mmHg 47%
10:00 +26°C° 0.2 mm 1 mps 656 mmHg 45%
11:00 +27°C° 0.2 mm 2 mps 656 mmHg 43%
12:00 +28°C° 0.2 mm 2 mps 656 mmHg 41%
13:00 +28°C° 0.4 mm 2 mps 656 mmHg 41%
14:00 +29°C° 0.4 mm 2 mps 655 mmHg 40%
15:00 +29°C° 0 mm 2 mps 655 mmHg 38%
16:00 +29°C° 0.3 mm 2 mps 655 mmHg 40%
17:00 +28°C° 0.3 mm 2 mps 655 mmHg 41%
18:00 +28°C° 0.3 mm 1 mps 655 mmHg 43%
19:00 +26°C° 0 mm 2 mps 655 mmHg 49%
20:00 +23°C° 0 mm 2 mps 655 mmHg 56%
21:00 +20°C° 0 mm 2 mps 654 mmHg 62%
22:00 +20°C° 0 mm 2 mps 654 mmHg 63%
23:00 +19°C° 0 mm 2 mps 654 mmHg 64%

Tomorrow, 4 July, Saturday

Time Temperature Precipitation Wind Pressure Humidity
00:00 +19°C° 0 mm 2 mps 654 mmHg 65%
01:00 +19°C° 0 mm 2 mps 654 mmHg 66%
02:00 +19°C° 0 mm 1 mps 654 mmHg 67%
03:00 +19°C° 0 mm 1 mps 654 mmHg 68%
04:00 +20°C° 0 mm 1 mps 654 mmHg 65%
05:00 +21°C° 0 mm 1 mps 655 mmHg 62%
06:00 +22°C° 0 mm 1 mps 655 mmHg 60%
07:00 +24°C° 0 mm 1 mps 655 mmHg 54%
08:00 +25°C° 0 mm 1 mps 655 mmHg 49%
09:00 +27°C° 0 mm 1 mps 656 mmHg 43%
10:00 +28°C° 0.1 mm 1 mps 656 mmHg 41%
11:00 +29°C° 0.1 mm 2 mps 656 mmHg 39%
12:00 +30°C° 0.1 mm 2 mps 655 mmHg 37%
13:00 +30°C° 0.3 mm 2 mps 655 mmHg 37%
14:00 +30°C° 0.3 mm 2 mps 655 mmHg 37%
15:00 +30°C° 0.3 mm 2 mps 654 mmHg 37%
16:00 +29°C° 0.2 mm 2 mps 654 mmHg 40%
17:00 +29°C° 0.2 mm 2 mps 654 mmHg 42%
18:00 +28°C° 0.2 mm 2 mps 654 mmHg 45%
19:00 +26°C° 0.1 mm 2 mps 653 mmHg 51%
20:00 +24°C° 0.1 mm 2 mps 653 mmHg 56%
21:00 +21°C° 0.1 mm 2 mps 653 mmHg 61%
22:00 +20°C° 0.1 mm 2 mps 653 mmHg 62%
23:00 +20°C° 0.1 mm 2 mps 653 mmHg 64%

Day after tomorrow, 5 July, Sunday

Time Temperature Precipitation Wind Pressure Humidity
00:00 +19°C° 0.1 mm 2 mps 652 mmHg 65%
01:00 +19°C° 0 mm 2 mps 652 mmHg 66%
02:00 +18°C° 0 mm 2 mps 652 mmHg 68%
03:00 +18°C° 0 mm 2 mps 652 mmHg 69%
04:00 +19°C° 0 mm 2 mps 652 mmHg 68%
05:00 +19°C° 0 mm 2 mps 652 mmHg 66%
06:00 +20°C° 0 mm 2 mps 653 mmHg 64%
07:00 +23°C° 0 mm 2 mps 653 mmHg 58%
08:00 +24°C° 0 mm 2 mps 653 mmHg 51%
09:00 +26°C° 0 mm 1 mps 654 mmHg 45%
10:00 +27°C° 0.2 mm 2 mps 653 mmHg 43%
11:00 +28°C° 0.2 mm 2 mps 653 mmHg 40%
12:00 +29°C° 0.2 mm 2 mps 653 mmHg 38%
13:00 +29°C° 0.3 mm 3 mps 653 mmHg 39%
14:00 +29°C° 0.3 mm 3 mps 653 mmHg 39%
15:00 +29°C° 0.3 mm 4 mps 652 mmHg 40%
16:00 +28°C° 0.2 mm 4 mps 652 mmHg 43%
17:00 +27°C° 0.2 mm 4 mps 652 mmHg 46%
18:00 +26°C° 0.2 mm 4 mps 652 mmHg 48%
19:00 +25°C° 0.1 mm 4 mps 652 mmHg 54%
20:00 +22°C° 0.1 mm 3 mps 651 mmHg 59%
21:00 +20°C° 0.1 mm 3 mps 651 mmHg 64%
22:00 +19°C° 0 mm 3 mps 651 mmHg 64%
23:00 +18°C° 0 mm 3 mps 651 mmHg 63%

6 July, Monday

Time Temperature Precipitation Wind Pressure Humidity
00:00 +18°C° 0 mm 2 mps 651 mmHg 63%
01:00 +18°C° 0 mm 2 mps 651 mmHg 60%
02:00 +17°C° 0 mm 2 mps 650 mmHg 58%
03:00 +17°C° 0 mm 2 mps 650 mmHg 56%
04:00 +18°C° 0 mm 2 mps 651 mmHg 55%
05:00 +18°C° 0 mm 2 mps 651 mmHg 53%
06:00 +19°C° 0 mm 2 mps 651 mmHg 52%
07:00 +21°C° 0 mm 2 mps 652 mmHg 46%
08:00 +24°C° 0 mm 2 mps 652 mmHg 41%
09:00 +26°C° 0 mm 2 mps 653 mmHg 35%
10:00 +27°C° 0 mm 2 mps 653 mmHg 34%
11:00 +28°C° 0 mm 2 mps 653 mmHg 33%
12:00 +29°C° 0 mm 3 mps 653 mmHg 32%
13:00 +29°C° 0 mm 3 mps 653 mmHg 33%
14:00 +29°C° 0 mm 3 mps 652 mmHg 34%
15:00 +30°C° 0 mm 3 mps 652 mmHg 35%
16:00 +29°C° 0.1 mm 3 mps 652 mmHg 38%
17:00 +28°C° 0.1 mm 3 mps 652 mmHg 41%
18:00 +27°C° 0.1 mm 3 mps 651 mmHg 43%
19:00 +25°C° 0 mm 3 mps 651 mmHg 48%
20:00 +22°C° 0 mm 3 mps 651 mmHg 52%
21:00 +20°C° 0 mm 3 mps 651 mmHg 57%
22:00 +20°C° 0 mm 3 mps 651 mmHg 57%
23:00 +19°C° 0 mm 3 mps 651 mmHg 56%

7 July, Tuesday

Time Temperature Precipitation Wind Pressure Humidity
00:00 +19°C° 0 mm 3 mps 650 mmHg 56%
01:00 +18°C° 0 mm 3 mps 650 mmHg 56%
02:00 +18°C° 0 mm 2 mps 650 mmHg 56%
03:00 +18°C° 0 mm 2 mps 650 mmHg 56%
04:00 +19°C° 0 mm 2 mps 650 mmHg 55%
05:00 +20°C° 0 mm 2 mps 651 mmHg 54%
06:00 +20°C° 0 mm 2 mps 651 mmHg 54%
07:00 +23°C° 0 mm 1 mps 652 mmHg 47%
08:00 +25°C° 0 mm 1 mps 652 mmHg 41%
09:00 +27°C° 0 mm 1 mps 653 mmHg 35%
10:00 +28°C° 0 mm 1 mps 653 mmHg 34%
11:00 +29°C° 0 mm 1 mps 653 mmHg 33%
12:00 +31°C° 0 mm 1 mps 653 mmHg 31%
13:00 +31°C° 0.1 mm 2 mps 653 mmHg 31%
14:00 +31°C° 0.1 mm 2 mps 652 mmHg 31%
15:00 +31°C° 0.1 mm 2 mps 652 mmHg 31%
16:00 +31°C° 0.1 mm 2 mps 652 mmHg 34%
17:00 +30°C° 0.1 mm 2 mps 652 mmHg 36%
18:00 +30°C° 0.1 mm 2 mps 651 mmHg 39%
19:00 +28°C° 0 mm 2 mps 651 mmHg 44%
20:00 +25°C° 0 mm 2 mps 651 mmHg 50%
21:00 +23°C° 0 mm 2 mps 651 mmHg 55%
22:00 +23°C° 0 mm 2 mps 651 mmHg 54%
23:00 +21°C° 0 mm 2 mps 650 mmHg 54%

8 July, Wednesday

Time Temperature Precipitation Wind Pressure Humidity
00:00 +21°C° 0 mm 2 mps 650 mmHg 53%
01:00 +20°C° 0 mm 2 mps 650 mmHg 54%
02:00 +20°C° 0 mm 2 mps 650 mmHg 55%
03:00 +21°C° 0 mm 1 mps 650 mmHg 56%
04:00 +22°C° 0 mm 1 mps 650 mmHg 54%
05:00 +23°C° 0 mm 1 mps 651 mmHg 52%
06:00 +24°C° 0 mm 1 mps 651 mmHg 51%
07:00 +26°C° 0 mm 1 mps 651 mmHg 45%
08:00 +28°C° 0 mm 1 mps 652 mmHg 40%
09:00 +30°C° 0 mm 1 mps 652 mmHg 34%
10:00 +31°C° 0 mm 1 mps 652 mmHg 32%
11:00 +32°C° 0 mm 2 mps 652 mmHg 30%
12:00 +34°C° 0 mm 2 mps 652 mmHg 28%
13:00 +34°C° 0 mm 2 mps 652 mmHg 28%
14:00 +34°C° 0 mm 2 mps 652 mmHg 27%
15:00 +34°C° 0 mm 2 mps 652 mmHg 26%
16:00 +32°C° 0.1 mm 2 mps 651 mmHg 31%
17:00 +31°C° 0.1 mm 2 mps 651 mmHg 36%
18:00 +30°C° 0.1 mm 2 mps 650 mmHg 41%
19:00 +28°C° 0 mm 2 mps 650 mmHg 45%
20:00 +26°C° 0 mm 2 mps 650 mmHg 50%
21:00 +24°C° 0 mm 2 mps 650 mmHg 54%
22:00 +24°C° 0 mm 2 mps 650 mmHg 54%
23:00 +23°C° 0 mm 2 mps 650 mmHg 54%
Show more